Location: La Tine
(46.4708°N, 7.0525°E)
Time: 10:28:12
(UTC+00:00)

Daily predictions for brighter satellites

Satellite Brightness Start Highest point End
(mag) Time Altitude Azimuth Time Altitude Azimuth Time Altitude Azimuth
Tsikada Rocket 4.1 17:56:46 10° N 18:02:58 89° W 18:09:09 10° S
CZ-2C R/B 3.2 17:58:39 10° SSE 18:03:45 59° ENE 18:09:11 10° N
SJ 16-02 1.6 17:59:26 10° SSW 18:03:49 79° WNW 18:08:14 10° NNE
Cosmos 1378 Rocket 3.9 17:59:37 10° NNW 18:03:55 70° W 18:08:11 10° S
Cosmos 990 Rocket 4.0 17:59:03 10° S 18:04:07 64° ESE 18:09:13 10° NNE
Cosmos 2227 4.3 17:59:03 10° S 18:04:41 59° ESE 18:10:17 10° NNE
Cosmos 923 Rocket 4.5 17:59:52 10° NNW 18:05:04 67° WSW 18:10:12 10° S
ISS -1.9 18:03:25 10° S 18:05:32 16° SE 18:07:39 10° E
Abrixas rocket 1.8 18:05:06 10° WSW 18:07:57 83° SSE 18:10:48 10° ENE
Okean 2 Rocket 4.4 18:06:00 10° SE 18:09:15 20° E 18:12:30 10° NE
SJ-11-01 4.5 18:05:31 10° SSE 18:10:07 53° ENE 18:14:42 10° N
Cosmos 1943 3.2 18:04:34 10° NNW 18:10:13 67° ENE 18:15:50 10° SE
NOSS 8 (F) 4.1 18:07:23 10° SW 18:10:40 88° SE 18:13:42 10° NE
Helios 1A Rocket 4.2 18:07:44 10° S 18:11:40 45° W 18:15:39 10° NNW
Cosmos 1939 Rocket 4.1 18:08:00 10° S 18:11:58 47° W 18:16:01 10° NNW
Okean-O 3.2 18:07:55 10° S 18:12:18 65° WSW 18:16:45 10° NNW
Lacrosse 5 rocket 2.7 18:08:37 10° W 18:12:37 41° NNW 18:16:51 10° NE
Ariane Rocket 3.9 18:11:25 10° ESE 18:15:41 29° ENE 18:20:01 10° N
Cosmos 1437 2.6 18:15:24 10° N 18:18:23 58° ENE 18:21:20 10° SSE
NOSS 2-2 (C) 4.0 18:16:53 10° S 18:19:53 27° ESE 18:23:04 10° ENE
CZ-2D R/B 4.5 18:17:06 10° S 18:20:51 47° W 18:24:38 10° NNW
Meteor 1-21 4.2 18:15:40 10° N 18:21:18 71° ENE 18:26:51 10° SSE
USA 116 3.4 18:19:41 10° NNE 18:23:05 75° ESE 18:26:51 10° S
CSL-04 Debris 4.2 18:18:05 10° SSE 18:23:29 85° ENE 18:28:54 10° NNW
GP-B 4.0 18:20:30 10° N 18:24:51 56° W 18:29:11 10° SSW
YAOGAN 1 3.2 18:23:39 10° S 18:27:55 61° W 18:32:13 10° NNW
Cosmos 1603 3.9 18:23:58 10° NNW 18:29:39 78° WSW 18:35:15 10° SSE
HJ-1C 3.2 18:27:04 10° SSE 18:30:21 81° ENE 18:33:39 10° N
Cosmos 1898 Rocket 3.6 18:26:03 10° SSW 18:31:13 85° WNW 18:36:27 10° NNE
CSL-04 Rocket 3.8 18:27:48 10° SSE 18:33:12 85° WSW 18:38:45 10° NNW
Cosmos 1867 3.7 18:28:12 10° NNW 18:33:38 61° NE 18:38:36 12° SE
Okean 2 3.9 18:30:34 10° NNW 18:34:43 66° W 18:38:50 10° S
USA 234 3.9 18:36:57 10° ENE 18:42:41 32° SE 18:48:23 10° S
CREW DRAGON DEMO-1 DEB 4.4 18:43:10 10° WNW 18:45:53 29° N 18:47:59 14° NE
Cosmos 1782 Rocket 4.0 18:44:13 10° SSW 18:48:35 67° W 18:53:02 10° N
Cosmos 1975 3.9 18:45:45 10° SSW 18:49:42 49° WNW 18:53:41 10° N
CZ-4 R/B 3.6 18:46:30 10° SSW 18:50:12 29° W 18:53:55 10° NW
Cosmos 2151 Rocket 4.1 18:46:13 10° SSE 18:50:16 36° E 18:54:22 10° NNE
Cosmos 372 Rocket 4.1 18:45:19 10° S 18:50:23 52° ESE 18:55:27 10° NNE
USA 186 1.8 18:48:48 18° SSE 18:50:53 52° ENE 18:54:03 10° N
Cosmos 1025 Rocket 3.2 18:48:17 10° N 18:52:34 50° ENE 18:56:09 14° SSE
Cosmos 1072 Rocket 4.4 18:49:48 10° S 18:55:59 71° E 19:02:18 10° NNE
Nadezhda 4 Rocket 4.1 18:53:21 10° N 18:59:20 52° ENE 19:04:42 13° SSE
Cosmos 1937 Rocket 3.9 18:55:43 10° SSW 19:00:56 66° WNW 19:06:09 10° NNE
OBJECT-B 1.8 19:01:23 27° ENE 19:01:25 27° ENE 19:04:15 10° N
Cosmos 2034 Rocket 4.1 18:56:06 10° SSE 19:02:15 53° E 19:08:24 10° NNE
Cosmos 1125 Rocket 4.3 18:59:21 10° SSE 19:03:54 30° E 19:08:27 10° NE
MOS 1 Rocket 3.4 18:59:39 10° N 19:04:09 73° WNW 19:08:27 10° SSW
CZ-2C R/B 3.1 19:03:04 10° SSW 19:04:29 12° S 19:04:39 12° S
Exosat Rocket 4.3 19:00:16 10° SSE 19:05:11 30° ESE 19:09:32 10° NE
FREGAT/IRIS 2.3 19:05:32 52° ENE 19:05:32 52° ENE 19:08:04 10° N
Cosmos 1674 3.4 19:05:46 10° N 19:09:19 34° ENE 19:09:42 33° E
Cosmos 1975 Rocket 4.4 19:08:13 10° NNW 19:12:17 39° W 19:16:18 10° SSW
In-Cosmos 22 4.0 19:11:07 10° N 19:16:26 88° E 19:21:24 12° S
NOSS 2-2 (E) 3.5 19:13:34 10° SW 19:17:03 63° NW 19:21:02 10° NE
Resurs 01 Rocket 2.4 19:19:17 32° E 19:19:46 33° ENE 19:23:45 10° N
H-2A R/B 3.3 19:15:38 10° SSW 19:20:15 39° W 19:24:59 10° NNW
ARGOS 3.9 19:16:08 10° S 19:21:21 53° W 19:26:37 10° NNW
ATLAS 2AS CENTAUR R/B 4.2 19:15:40 10° SSE 19:24:48 20° ENE 19:27:54 10° ENE
Cosmos 1707 3.5 19:18:06 10° NNW 19:21:51 51° W 19:25:34 10° S
SJ-6B 2.6 19:21:47 28° S 19:23:39 82° WSW 19:27:25 10° NNW
CZ-2C R/B 2.6 19:19:08 10° NNE 19:24:41 80° ESE 19:30:17 10° S
NOSS 2-2 (D) 3.4 19:22:01 10° SW 19:25:30 66° NW 19:29:25 10° NE
KORONAS-FOTON 3.9 19:23:09 10° N 19:27:01 53° ENE 19:27:14 52° E
MOS 1 4.3 19:23:05 14° SSE 19:28:07 84° WSW 19:33:51 10° NNW
Cosmos 1174 4.5 19:24:15 10° SSW 19:29:06 66° ESE 19:35:15 10° NE
Cosmos 1048 Rocket 3.9 19:26:32 10° NNW 19:31:52 80° ENE 19:34:10 35° SSE
Cosmos 1844 3.8 19:28:39 10° S 19:34:08 50° ESE 19:39:35 10° NE
CENTAUR R/B 3.3 19:26:24 10° NW 19:34:17 62° NE 19:38:32 33° ESE
Cosmos 1634 Rocket 4.3 19:34:23 36° SE 19:35:54 43° E 19:41:42 10° NNE
ARIANE 5 R/B 3.8 19:37:43 28° NE 19:37:43 28° NE 19:40:50 10° N
Cosmos 2263 Rocket 3.9 19:34:15 10° WSW 19:39:14 32° NW 19:44:15 10° NNE
ATLAS 3B R/B 3.8 19:34:03 10° NNW 19:40:01 31° NNE 19:42:49 24° ENE
Cosmos 2285 Rocket 4.0 19:34:20 10° S 19:40:25 54° ESE 19:46:35 10° NNE
ISS -3.2 19:38:34 10° WSW 19:41:14 54° WSW 19:41:14 54° WSW
USA 238 DEB 3.8 19:34:56 10° NW 19:42:12 86° NE 19:45:38 36° SE
USA 238 3.8 19:35:03 10° NW 19:42:18 86° NE 19:45:43 36° SE
Abrixas rocket 3.4 19:40:32 10° W 19:42:31 37° NW 19:42:31 37° NW
Cosmos 1844 Rocket 2.5 19:40:30 10° SSW 19:46:03 76° ESE 19:51:39 10° NNE
Okean 2 Rocket 4.3 19:42:43 10° SSW 19:47:00 43° WNW 19:51:19 10° N
Spot 2 Rocket 4.4 19:48:07 32° ENE 19:48:07 32° ENE 19:52:14 10° N
Okean 1 Rocket 3.0 19:51:22 72° E 19:51:22 72° E 19:55:44 10° NNE
Cosmos 1627 Rocket 4.5 19:45:17 10° N 19:51:40 66° E 19:53:33 45° SE
Lacrosse 5 rocket 3.6 19:49:22 10° WNW 19:52:47 21° N 19:55:13 15° NE
Ariane Rocket 4.1 19:49:58 11° SSW 19:54:29 41° W 19:59:18 10° NNW
Cosmos 1092 Rocket 3.9 19:51:38 10° N 19:57:49 88° E 20:00:15 40° S
Meteor 1-15 Rocket 4.2 19:52:46 10° SSW 19:58:22 81° W 20:04:07 10° N
Resurs 1-3 3.8 19:57:57 56° SSW 19:58:42 69° WSW 20:03:06 10° NNW
Cosmos 2195 Rocket 4.4 19:54:50 10° N 20:01:09 83° E 20:03:07 47° SSE
Cosmos 494 Rocket 3.9 19:59:35 10° NNW 20:04:52 84° WSW 20:05:36 66° S
SPOT 3 Rocket 3.6 20:03:38 49° S 20:05:00 72° WSW 20:10:10 10° NNW
Cosmos 2026 Rocket 3.9 19:58:58 10° N 20:05:22 78° E 20:06:56 54° SSE
CZ-2C R/B 3.7 20:01:28 10° NNE 20:05:30 73° NNE 20:05:30 73° NNE
Meteor 2-13 Rocket 4.5 20:00:21 10° NNW 20:06:32 78° W 20:09:01 38° S
Cosmos 1833 Rocket 3.6 20:02:47 10° NNW 20:07:46 33° NE 20:07:46 33° NE
NOSS 3-2 (A) 4.2 20:02:59 10° NW 20:10:29 67° WSW 20:13:57 38° SSE
Terra 3.8 20:19:12 18° NNE 20:19:12 18° NNE 20:21:02 10° NNE
Cosmos 1428 Rocket 4.4 20:11:24 10° N 20:17:43 89° ENE 20:18:51 63° S
Cosmos 1626 3.9 20:16:01 10° N 20:17:51 28° N 20:17:51 28° N
Cosmos 2279 Rocket 4.1 20:20:51 55° ENE 20:20:51 55° ENE 20:26:17 10° NNE
Cosmos 2142 Rocket 4.4 20:21:19 69° E 20:21:19 69° E 20:27:31 10° NNE
USA 234 3.2 20:19:34 10° NE 20:26:08 85° NW 20:32:42 10° WSW
Meteor 2-5 Rocket 4.1 20:24:06 10° NNW 20:29:39 61° W 20:30:34 53° SW
OBJECT-B 3.7 20:34:35 16° WNW 20:34:35 16° WNW 20:36:02 10° NW
SPOT 5 4.2 20:40:09 34° NNE 20:40:09 34° NNE 20:43:29 10° N
Meteor 1-22 Rocket 4.5 20:43:04 67° WSW 20:43:29 70° WNW 20:49:31 10° N
NOSS 3-2 (C) 4.2 20:37:08 10° NW 20:44:37 64° WSW 20:46:11 55° SSW
Cosmos 2082 Rocket 3.3 20:42:36 10° NNW 20:46:33 34° NNE 20:46:33 34° NNE
ERS-1 Rocket 4.2 20:57:24 36° N 20:57:24 36° N 21:00:23 10° N
COSMOS 2406 3.7 20:49:50 10° NNW 20:54:20 58° NNW 20:54:20 58° NNW
Resurs 01 Rocket 3.5 20:56:51 27° W 20:56:51 27° W 21:00:07 10° NW
Meteor 1-24 Rocket 4.4 20:51:11 10° NNW 20:56:23 47° W 20:56:23 47° W
Cosmos 2098 Rocket 4.3 20:57:29 10° N 21:03:50 70° N 21:03:50 70° N
Lacrosse 4 Rocket 4.0 21:01:16 10° NNW 21:02:11 15° N 21:02:11 15° N
ATLAS 2AS CENTAUR R/B 2.9 21:04:01 10° SW 21:11:59 87° NW 21:19:55 10° NE
Cosmos 1655 Rocket 4.4 21:07:24 10° N 21:12:30 60° NNW 21:12:30 60° NNW
Cosmos 2278 Rocket 4.4 21:22:33 16° NNE 21:22:33 16° NNE 21:23:42 10° NNE
CENTAUR R/B 3.8 21:17:22 10° NW 21:25:01 43° WSW 21:25:44 43° SW
ATLAS 3B R/B 3.1 21:24:34 10° NW 21:30:03 60° NW 21:30:03 60° NW
Lacrosse 5 rocket 4.2 21:29:21 10° NW 21:30:51 18° NNW 21:30:51 18° NNW
Cosmos 1833 Rocket 4.4 21:46:35 10° NW 21:49:28 28° NW 21:49:28 28° NW
Terra 4.3 21:58:06 19° NNW 21:58:06 19° NNW 21:59:28 10° NNW
USA 234 4.2 22:02:42 10° NE 22:08:45 42° NNW 22:14:49 10° W
Cosmos 2082 Rocket 4.5 22:26:45 10° NW 22:28:23 19° NW 22:28:23 19° NW
ATLAS 2AS CENTAUR R/B 4.4 22:59:08 18° W 23:04:01 33° NNW 23:10:56 10° NNE
